weather.gov     
National Weather Service

Terminal Aerodrome Forecast
NWS Homepage
This page is being discontinued on March 12, 2014.
The same data is available at this site. Please update your bookmarks.
Thank you, and we apologize for the inconvenience.
Please send an email to SR-SRH.Webmaster@noaa.gov with any concerns.


Current Version
Previous Version:    01  02  03  04  05  06  07  08  09  10  11  12  13  14  15  16  17  18  19  20  21  22  23  24  25  26  27  28  29  30  
   31  32  33  34  35  
[Printable]
995
FTUS42 TJSJ 221100
TAFJSJ
TAF
TJSJ 221125Z 2212/2312 08005KT P6SM VCSH SCT022 SCT040
      TEMPO 2212/2214 VRB12KT -SHRA BKN025
     FM221430 07010KT P6SM SCT025 SCT050 SCT100
     FM221830 06014KT P6SM VCTS FEW025CB BKN040
     FM222200 09010KT P6SM VCSH SCT030 SCT050 BKN100=


U.S. Dept. of Commerce
NOAA National Weather Service
1325 East West Highway
Silver Spring, MD 20910
E-mail: w-nws.webmaster@noaa.gov
Page last modified: May 16, 2007
NATIONAL WEATHER SERVICE: for Safety, for Work, for Fun - FOR LIFE